Year,Month,Day,Hour,Minute,Value (Times are PST for windgust in km/hr)
2012,11,18,00,00,3.20
2012,11,18,00,01,3.20
2012,11,18,00,02,3.20
2012,11,18,00,03,1.60
2012,11,18,00,04,1.60
2012,11,18,00,05,3.20
2012,11,18,00,06,1.60
2012,11,18,00,07,11.30
2012,11,18,00,08,9.60
2012,11,18,00,09,1.60
2012,11,18,00,10,3.20
2012,11,18,00,11,4.80
2012,11,18,00,12,4.80
2012,11,18,00,13,6.40
2012,11,18,00,14,4.80
2012,11,18,00,15,11.30
2012,11,18,00,16,8.10
2012,11,18,00,17,4.80
2012,11,18,00,18,4.80
2012,11,18,00,19,4.80
2012,11,18,00,20,8.10
2012,11,18,00,21,8.10
2012,11,18,00,22,6.40
2012,11,18,00,23,3.20
2012,11,18,00,24,3.20
2012,11,18,00,25,3.20
2012,11,18,00,26,4.80
2012,11,18,00,27,6.40
2012,11,18,00,28,3.20
2012,11,18,00,29,4.80
2012,11,18,00,30,3.20
2012,11,18,00,31,3.20
2012,11,18,00,32,1.60
2012,11,18,00,38,3.20
2012,11,18,00,39,1.60
2012,11,18,00,45,1.60
2012,11,18,00,46,6.40
2012,11,18,00,47,6.40
2012,11,18,00,48,4.80
2012,11,18,00,49,8.10
2012,11,18,00,50,6.40
2012,11,18,00,51,4.80
2012,11,18,00,52,4.80
2012,11,18,00,53,3.20
2012,11,18,00,54,1.60
2012,11,18,00,55,1.60
2012,11,18,00,57,3.20
2012,11,18,00,58,4.80
2012,11,18,00,59,3.20
2012,11,18,01,00,3.20
2012,11,18,01,01,3.20
2012,11,18,01,02,1.60
2012,11,18,01,04,1.60
2012,11,18,01,06,1.60
2012,11,18,01,07,3.20
2012,11,18,01,08,1.60
2012,11,18,01,18,3.20
2012,11,18,01,19,3.20
2012,11,18,01,20,4.80
2012,11,18,01,21,4.80
2012,11,18,01,22,4.80
2012,11,18,01,23,3.20
2012,11,18,01,24,4.80
2012,11,18,01,26,3.20
2012,11,18,01,27,1.60
2012,11,18,01,28,3.20
2012,11,18,01,29,4.80
2012,11,18,01,30,3.20
2012,11,18,01,31,1.60
2012,11,18,01,32,3.20
2012,11,18,01,33,1.60
2012,11,18,01,38,3.20
2012,11,18,01,39,4.80
2012,11,18,01,40,6.40
2012,11,18,01,41,6.40
2012,11,18,01,42,6.40
2012,11,18,01,43,8.10
2012,11,18,01,44,8.10
2012,11,18,01,45,9.60
2012,11,18,01,46,9.60
2012,11,18,01,47,8.10
2012,11,18,01,48,8.10
2012,11,18,01,49,6.40
2012,11,18,01,50,8.10
2012,11,18,01,51,9.60
2012,11,18,01,52,11.30
2012,11,18,01,53,11.30
2012,11,18,01,54,11.30
2012,11,18,01,55,11.30
2012,11,18,01,56,11.30
2012,11,18,01,57,11.30
2012,11,18,01,58,9.60
2012,11,18,01,59,6.40
2012,11,18,02,00,6.40
2012,11,18,02,01,6.40
2012,11,18,02,02,6.40
2012,11,18,02,03,8.10
2012,11,18,02,04,6.40
2012,11,18,02,05,8.10
2012,11,18,02,06,9.60
2012,11,18,02,07,11.30
2012,11,18,02,08,6.40
2012,11,18,02,09,9.60
2012,11,18,02,10,11.30
2012,11,18,02,11,11.30
2012,11,18,02,12,9.60
2012,11,18,02,13,8.10
2012,11,18,02,14,8.10
2012,11,18,02,15,4.80
2012,11,18,02,17,1.60
2012,11,18,02,18,1.60
2012,11,18,02,19,3.20
2012,11,18,02,20,3.20
2012,11,18,02,21,8.10
2012,11,18,02,22,6.40
2012,11,18,02,23,6.40
2012,11,18,02,24,6.40
2012,11,18,02,25,6.40
2012,11,18,02,26,6.40
2012,11,18,02,27,6.40
2012,11,18,02,28,4.80
2012,11,18,02,29,4.80
2012,11,18,02,30,3.20
2012,11,18,02,31,4.80
2012,11,18,02,32,6.40
2012,11,18,02,33,8.10
2012,11,18,02,34,8.10
2012,11,18,02,35,4.80
2012,11,18,02,36,4.80
2012,11,18,02,37,4.80
2012,11,18,02,38,4.80
2012,11,18,02,39,4.80
2012,11,18,02,40,3.20
2012,11,18,02,41,3.20
2012,11,18,02,42,4.80
2012,11,18,02,43,4.80
2012,11,18,02,44,3.20
2012,11,18,02,45,4.80
2012,11,18,02,46,4.80
2012,11,18,02,47,4.80
2012,11,18,02,48,6.40
2012,11,18,02,49,6.40
2012,11,18,02,50,6.40
2012,11,18,02,51,6.40
2012,11,18,02,52,6.40
2012,11,18,02,53,6.40
2012,11,18,02,54,4.80
2012,11,18,02,55,4.80
2012,11,18,02,56,4.80
2012,11,18,02,57,3.20
2012,11,18,02,58,4.80
2012,11,18,02,59,3.20
2012,11,18,03,00,3.20
2012,11,18,03,01,3.20
2012,11,18,03,08,1.60
2012,11,18,03,09,3.20
2012,11,18,03,10,4.80
2012,11,18,03,11,6.40
2012,11,18,03,12,4.80
2012,11,18,03,13,6.40
2012,11,18,03,14,8.10
2012,11,18,03,15,6.40
2012,11,18,03,16,4.80
2012,11,18,03,17,4.80
2012,11,18,03,19,3.20
2012,11,18,03,20,3.20
2012,11,18,03,21,4.80
2012,11,18,03,22,3.20
2012,11,18,03,23,3.20
2012,11,18,03,24,3.20
2012,11,18,03,25,3.20
2012,11,18,03,26,3.20
2012,11,18,03,27,1.60
2012,11,18,03,29,1.60
2012,11,18,03,30,3.20
2012,11,18,03,31,1.60
2012,11,18,03,32,4.80
2012,11,18,03,33,3.20
2012,11,18,03,34,3.20
2012,11,18,03,35,1.60
2012,11,18,03,37,4.80
2012,11,18,03,38,4.80
2012,11,18,03,39,4.80
2012,11,18,03,40,6.40
2012,11,18,03,41,4.80
2012,11,18,03,42,3.20
2012,11,18,03,43,1.60
2012,11,18,03,44,3.20
2012,11,18,03,45,1.60
2012,11,18,03,47,1.60
2012,11,18,03,48,4.80
2012,11,18,03,49,4.80
2012,11,18,03,50,3.20
2012,11,18,03,51,1.60
2012,11,18,03,52,1.60
2012,11,18,03,53,1.60
2012,11,18,03,54,1.60
2012,11,18,03,55,1.60
2012,11,18,03,56,1.60
2012,11,18,03,57,3.20
2012,11,18,04,02,4.80
2012,11,18,04,03,4.80
2012,11,18,04,04,3.20
2012,11,18,04,05,4.80
2012,11,18,04,06,3.20
2012,11,18,04,07,4.80
2012,11,18,04,08,4.80
2012,11,18,04,09,3.20
2012,11,18,04,10,1.60
2012,11,18,04,11,3.20
2012,11,18,04,12,4.80
2012,11,18,04,13,3.20
2012,11,18,04,14,3.20
2012,11,18,04,15,1.60
2012,11,18,04,16,1.60
2012,11,18,04,17,3.20
2012,11,18,04,18,3.20
2012,11,18,04,19,6.40
2012,11,18,04,20,4.80
2012,11,18,04,21,4.80
2012,11,18,04,22,3.20
2012,11,18,04,23,3.20
2012,11,18,04,24,4.80
2012,11,18,04,25,4.80
2012,11,18,04,26,6.40
2012,11,18,04,27,3.20
2012,11,18,04,28,6.40
2012,11,18,04,29,8.10
2012,11,18,04,30,6.40
2012,11,18,04,31,6.40
2012,11,18,04,32,4.80
2012,11,18,04,33,1.60
2012,11,18,04,34,3.20
2012,11,18,04,35,4.80
2012,11,18,04,36,3.20
2012,11,18,04,37,3.20
2012,11,18,04,38,1.60
2012,11,18,04,39,1.60
2012,11,18,04,40,3.20
2012,11,18,04,41,1.60
2012,11,18,04,42,3.20
2012,11,18,04,43,6.40
2012,11,18,04,44,9.60
2012,11,18,04,45,9.60
2012,11,18,04,46,9.60
2012,11,18,04,47,9.60
2012,11,18,04,48,6.40
2012,11,18,04,49,4.80
2012,11,18,04,50,3.20
2012,11,18,04,51,4.80
2012,11,18,04,52,3.20
2012,11,18,04,53,4.80
2012,11,18,04,54,4.80
2012,11,18,04,55,6.40
2012,11,18,04,56,6.40
2012,11,18,04,57,4.80
2012,11,18,04,58,4.80
2012,11,18,04,59,4.80
2012,11,18,05,00,3.20
2012,11,18,05,01,3.20
2012,11,18,05,02,4.80
2012,11,18,05,03,4.80
2012,11,18,05,04,6.40
2012,11,18,05,05,6.40
2012,11,18,05,06,6.40
2012,11,18,05,07,6.40
2012,11,18,05,08,3.20
2012,11,18,05,09,3.20
2012,11,18,05,10,3.20
2012,11,18,05,11,1.60
2012,11,18,05,12,1.60
2012,11,18,05,15,1.60
2012,11,18,05,16,3.20
2012,11,18,05,17,4.80
2012,11,18,05,18,3.20
2012,11,18,05,19,3.20
2012,11,18,05,20,3.20
2012,11,18,05,21,3.20
2012,11,18,05,22,3.20
2012,11,18,05,23,3.20
2012,11,18,05,24,4.80
2012,11,18,05,25,3.20
2012,11,18,05,26,1.60
2012,11,18,05,27,1.60
2012,11,18,05,29,3.20
2012,11,18,05,30,3.20
2012,11,18,05,31,3.20
2012,11,18,05,32,4.80
2012,11,18,05,33,4.80
2012,11,18,05,34,4.80
2012,11,18,05,35,6.40
2012,11,18,05,36,4.80
2012,11,18,05,37,4.80
2012,11,18,05,38,3.20
2012,11,18,05,39,3.20
2012,11,18,05,40,3.20
2012,11,18,05,41,3.20
2012,11,18,05,42,3.20
2012,11,18,05,43,1.60
2012,11,18,05,44,1.60
2012,11,18,05,46,3.20
2012,11,18,05,47,4.80
2012,11,18,05,48,4.80
2012,11,18,05,49,1.60
2012,11,18,05,50,3.20
2012,11,18,05,51,4.80
2012,11,18,05,52,4.80
2012,11,18,05,53,4.80
2012,11,18,05,54,3.20
2012,11,18,05,55,3.20
2012,11,18,05,57,4.80
2012,11,18,05,58,4.80
2012,11,18,05,59,4.80
2012,11,18,06,00,1.60
2012,11,18,06,05,3.20
2012,11,18,06,06,3.20
2012,11,18,06,07,3.20
2012,11,18,06,08,3.20
2012,11,18,06,09,4.80
2012,11,18,06,10,1.60
2012,11,18,06,12,6.40
2012,11,18,06,13,6.40
2012,11,18,06,14,8.10
2012,11,18,06,15,6.40
2012,11,18,06,16,6.40
2012,11,18,06,17,6.40
2012,11,18,06,18,4.80
2012,11,18,06,19,4.80
2012,11,18,06,20,4.80
2012,11,18,06,21,3.20
2012,11,18,06,22,3.20
2012,11,18,06,23,3.20
2012,11,18,06,24,3.20
2012,11,18,06,25,3.20
2012,11,18,06,26,3.20
2012,11,18,06,27,3.20
2012,11,18,06,28,3.20
2012,11,18,06,29,4.80
2012,11,18,06,30,6.40
2012,11,18,06,31,4.80
2012,11,18,06,32,4.80
2012,11,18,06,33,6.40
2012,11,18,06,34,6.40
2012,11,18,06,35,6.40
2012,11,18,06,36,8.10
2012,11,18,06,37,6.40
2012,11,18,06,38,6.40
2012,11,18,06,39,6.40
2012,11,18,06,40,4.80
2012,11,18,06,41,1.60
2012,11,18,06,42,1.60
2012,11,18,06,45,4.80
2012,11,18,06,46,1.60
2012,11,18,06,49,1.60
2012,11,18,06,50,3.20
2012,11,18,06,51,3.20
2012,11,18,06,52,4.80
2012,11,18,06,53,1.60
2012,11,18,06,54,1.60
2012,11,18,06,57,1.60
2012,11,18,06,58,3.20
2012,11,18,06,59,3.20
2012,11,18,07,00,3.20
2012,11,18,07,01,3.20
2012,11,18,07,02,4.80
2012,11,18,07,03,6.40
2012,11,18,07,04,6.40
2012,11,18,07,05,6.40
2012,11,18,07,06,6.40
2012,11,18,07,07,6.40
2012,11,18,07,08,8.10
2012,11,18,07,09,8.10
2012,11,18,07,10,9.60
2012,11,18,07,11,11.30
2012,11,18,07,12,11.30
2012,11,18,07,13,9.60
2012,11,18,07,14,9.60
2012,11,18,07,15,11.30
2012,11,18,07,16,9.60
2012,11,18,07,17,8.10
2012,11,18,07,18,9.60
2012,11,18,07,19,9.60
2012,11,18,07,20,9.60
2012,11,18,07,21,11.30
2012,11,18,07,22,14.50
2012,11,18,07,23,11.30
2012,11,18,07,24,12.90
2012,11,18,07,25,8.10
2012,11,18,07,26,9.60
2012,11,18,07,27,8.10
2012,11,18,07,28,8.10
2012,11,18,07,29,6.40
2012,11,18,07,30,6.40
2012,11,18,07,31,4.80
2012,11,18,07,32,6.40
2012,11,18,07,33,6.40
2012,11,18,07,34,6.40
2012,11,18,07,35,6.40
2012,11,18,07,36,8.10
2012,11,18,07,37,8.10
2012,11,18,07,38,8.10
2012,11,18,07,39,8.10
2012,11,18,07,40,9.60
2012,11,18,07,41,8.10
2012,11,18,07,42,6.40
2012,11,18,07,43,6.40
2012,11,18,07,44,4.80
2012,11,18,07,45,4.80
2012,11,18,07,46,6.40
2012,11,18,07,47,4.80
2012,11,18,07,48,6.40
2012,11,18,07,49,4.80
2012,11,18,07,50,4.80
2012,11,18,07,51,6.40
2012,11,18,07,52,4.80
2012,11,18,07,53,6.40
2012,11,18,07,54,8.10
2012,11,18,07,55,8.10
2012,11,18,07,56,9.60
2012,11,18,07,57,8.10
2012,11,18,07,58,6.40
2012,11,18,07,59,8.10
2012,11,18,08,00,8.10
2012,11,18,08,01,8.10
2012,11,18,08,02,8.10
2012,11,18,08,03,8.10
2012,11,18,08,04,6.40
2012,11,18,08,05,6.40
2012,11,18,08,06,8.10
2012,11,18,08,07,6.40
2012,11,18,08,08,4.80
2012,11,18,08,09,4.80
2012,11,18,08,10,6.40
2012,11,18,08,11,6.40
2012,11,18,08,12,6.40
2012,11,18,08,13,8.10
2012,11,18,08,14,8.10
2012,11,18,08,15,8.10
2012,11,18,08,16,8.10
2012,11,18,08,17,9.60
2012,11,18,08,18,9.60
2012,11,18,08,19,9.60
2012,11,18,08,20,8.10
2012,11,18,08,21,9.60
2012,11,18,08,22,9.60
2012,11,18,08,23,9.60
2012,11,18,08,24,9.60
2012,11,18,08,25,14.50
2012,11,18,08,26,12.90
2012,11,18,08,27,11.30
2012,11,18,08,28,12.90
2012,11,18,08,29,11.30
2012,11,18,08,30,12.90
2012,11,18,08,31,9.60
2012,11,18,08,32,8.10
2012,11,18,08,33,9.60
2012,11,18,08,34,11.30
2012,11,18,08,35,9.60
2012,11,18,08,36,8.10
2012,11,18,08,37,8.10
2012,11,18,08,38,8.10
2012,11,18,08,39,11.30
2012,11,18,08,40,11.30
2012,11,18,08,41,9.60
2012,11,18,08,42,9.60
2012,11,18,08,43,14.50
2012,11,18,08,44,14.50
2012,11,18,08,45,11.30
2012,11,18,08,46,11.30
2012,11,18,08,47,9.60
2012,11,18,08,48,8.10
2012,11,18,08,49,8.10
2012,11,18,08,50,9.60
2012,11,18,08,51,12.90
2012,11,18,08,52,11.30
2012,11,18,08,53,12.90
2012,11,18,08,54,17.70
2012,11,18,08,55,16.10
2012,11,18,08,56,14.50
2012,11,18,08,57,9.60
2012,11,18,08,58,9.60
2012,11,18,08,59,11.30
2012,11,18,09,00,9.60
2012,11,18,09,01,8.10
2012,11,18,09,02,9.60
2012,11,18,09,03,9.60
2012,11,18,09,04,8.10
2012,11,18,09,05,9.60
2012,11,18,09,06,8.10
2012,11,18,09,07,4.80
2012,11,18,09,08,4.80
2012,11,18,09,09,4.80
2012,11,18,09,10,4.80
2012,11,18,09,11,4.80
2012,11,18,09,12,6.40
2012,11,18,09,13,6.40
2012,11,18,09,14,6.40
2012,11,18,09,15,6.40
2012,11,18,09,16,8.10
2012,11,18,09,17,8.10
2012,11,18,09,18,3.20
2012,11,18,09,19,1.60
2012,11,18,09,20,4.80
2012,11,18,09,21,4.80
2012,11,18,09,22,6.40
2012,11,18,09,23,8.10
2012,11,18,09,24,9.60
2012,11,18,09,25,11.30
2012,11,18,09,26,8.10
2012,11,18,09,27,6.40
2012,11,18,09,28,4.80
2012,11,18,09,29,4.80
2012,11,18,09,30,6.40
2012,11,18,09,31,3.20
2012,11,18,09,32,4.80
2012,11,18,09,33,8.10
2012,11,18,09,34,9.60
2012,11,18,09,35,11.30
2012,11,18,09,36,11.30
2012,11,18,09,37,8.10
2012,11,18,09,38,8.10
2012,11,18,09,39,6.40
2012,11,18,09,40,6.40
2012,11,18,09,41,4.80
2012,11,18,09,42,6.40
2012,11,18,09,43,11.30
2012,11,18,09,44,9.60
2012,11,18,09,45,9.60
2012,11,18,09,46,4.80
2012,11,18,09,47,3.20
2012,11,18,09,48,3.20
2012,11,18,09,49,1.60
2012,11,18,09,50,4.80
2012,11,18,09,51,4.80
2012,11,18,09,52,6.40
2012,11,18,09,53,1.60
2012,11,18,09,54,1.60
2012,11,18,09,55,1.60
2012,11,18,09,56,4.80
2012,11,18,09,57,6.40
2012,11,18,09,58,3.20
2012,11,18,09,59,4.80
2012,11,18,10,00,4.80
2012,11,18,10,01,3.20
2012,11,18,10,02,4.80
2012,11,18,10,03,4.80
2012,11,18,10,04,8.10
2012,11,18,10,05,6.40
2012,11,18,10,06,3.20
2012,11,18,10,07,4.80
2012,11,18,10,08,8.10
2012,11,18,10,09,8.10
2012,11,18,10,10,4.80
2012,11,18,10,11,6.40
2012,11,18,10,12,6.40
2012,11,18,10,13,6.40
2012,11,18,10,14,4.80
2012,11,18,10,15,6.40
2012,11,18,10,16,8.10
2012,11,18,10,17,6.40
2012,11,18,10,18,6.40
2012,11,18,10,19,8.10
2012,11,18,10,20,8.10
2012,11,18,10,21,4.80
2012,11,18,10,22,3.20
2012,11,18,10,23,1.60
2012,11,18,10,24,4.80
2012,11,18,10,25,8.10
2012,11,18,10,26,8.10
2012,11,18,10,27,8.10
2012,11,18,10,28,4.80
2012,11,18,10,29,1.60
2012,11,18,10,30,3.20
2012,11,18,10,31,1.60
2012,11,18,10,32,4.80
2012,11,18,10,33,4.80
2012,11,18,10,34,4.80
2012,11,18,10,35,4.80
2012,11,18,10,36,6.40
2012,11,18,10,37,6.40
2012,11,18,10,38,6.40
2012,11,18,10,39,6.40
2012,11,18,10,40,6.40
2012,11,18,10,41,6.40
2012,11,18,10,42,4.80
2012,11,18,10,43,4.80
2012,11,18,10,44,6.40
2012,11,18,10,45,9.60
2012,11,18,10,46,11.30
2012,11,18,10,47,9.60
2012,11,18,10,48,9.60
2012,11,18,10,49,9.60
2012,11,18,10,50,8.10
2012,11,18,10,51,9.60
2012,11,18,10,52,4.80
2012,11,18,10,53,6.40
2012,11,18,10,54,8.10
2012,11,18,10,55,9.60
2012,11,18,10,56,9.60
2012,11,18,10,57,8.10
2012,11,18,10,58,6.40
2012,11,18,10,59,8.10
2012,11,18,11,00,6.40
2012,11,18,11,01,6.40
2012,11,18,11,02,4.80
2012,11,18,11,03,4.80
2012,11,18,11,04,4.80
2012,11,18,11,05,4.80
2012,11,18,11,06,4.80
2012,11,18,11,07,4.80
2012,11,18,11,08,4.80
2012,11,18,11,09,8.10
2012,11,18,11,10,8.10
2012,11,18,11,11,6.40
2012,11,18,11,12,4.80
2012,11,18,11,13,3.20
2012,11,18,11,14,6.40
2012,11,18,11,15,8.10
2012,11,18,11,16,6.40
2012,11,18,11,17,6.40
2012,11,18,11,18,8.10
2012,11,18,11,19,8.10
2012,11,18,11,20,8.10
2012,11,18,11,21,8.10
2012,11,18,11,22,4.80
2012,11,18,11,23,8.10
2012,11,18,11,24,8.10
2012,11,18,11,25,9.60
2012,11,18,11,26,11.30
2012,11,18,11,27,9.60
2012,11,18,11,28,9.60
2012,11,18,11,29,8.10
2012,11,18,11,30,6.40
2012,11,18,11,31,6.40
2012,11,18,11,32,4.80
2012,11,18,11,33,3.20
2012,11,18,11,34,4.80
2012,11,18,11,35,8.10
2012,11,18,11,36,8.10
2012,11,18,11,37,12.90
2012,11,18,11,38,11.30
2012,11,18,11,39,9.60
2012,11,18,11,40,11.30
2012,11,18,11,41,9.60
2012,11,18,11,42,8.10
2012,11,18,11,43,8.10
2012,11,18,11,44,6.40
2012,11,18,11,45,3.20
2012,11,18,11,46,8.10
2012,11,18,11,47,4.80
2012,11,18,11,48,6.40
2012,11,18,11,49,6.40
2012,11,18,11,50,4.80
2012,11,18,11,51,3.20
2012,11,18,11,52,1.60
2012,11,18,11,53,6.40
2012,11,18,11,54,6.40
2012,11,18,11,55,4.80
2012,11,18,11,57,1.60
2012,11,18,11,58,4.80
2012,11,18,11,59,6.40
2012,11,18,12,00,8.10
2012,11,18,12,01,8.10
2012,11,18,12,02,9.60
2012,11,18,12,03,8.10
2012,11,18,12,04,9.60
2012,11,18,12,05,8.10
2012,11,18,12,06,6.40
2012,11,18,12,07,8.10
2012,11,18,12,08,9.60
2012,11,18,12,09,9.60
2012,11,18,12,10,12.90
2012,11,18,12,11,14.50
2012,11,18,12,12,9.60
2012,11,18,12,13,9.60
2012,11,18,12,14,14.50
2012,11,18,12,15,17.70
2012,11,18,12,16,11.30
2012,11,18,12,17,9.60
2012,11,18,12,18,8.10
2012,11,18,12,19,11.30
2012,11,18,12,20,11.30
2012,11,18,12,21,11.30
2012,11,18,12,22,9.60
2012,11,18,12,23,6.40
2012,11,18,12,24,6.40
2012,11,18,12,25,4.80
2012,11,18,12,26,9.60
2012,11,18,12,27,6.40
2012,11,18,12,28,4.80
2012,11,18,12,29,6.40
2012,11,18,12,30,3.20
2012,11,18,12,31,6.40
2012,11,18,12,32,9.60
2012,11,18,12,33,11.30
2012,11,18,12,34,9.60
2012,11,18,12,35,6.40
2012,11,18,12,36,8.10
2012,11,18,12,37,8.10
2012,11,18,12,38,8.10
2012,11,18,12,39,8.10
2012,11,18,12,40,12.90
2012,11,18,12,41,19.30
2012,11,18,12,42,9.60
2012,11,18,12,43,14.50
2012,11,18,12,44,8.10
2012,11,18,12,45,9.60
2012,11,18,12,46,11.30
2012,11,18,12,47,8.10
2012,11,18,12,48,20.90
2012,11,18,12,49,14.50
2012,11,18,12,50,11.30
2012,11,18,12,51,8.10
2012,11,18,12,52,8.10
2012,11,18,12,53,4.80
2012,11,18,12,54,9.60
2012,11,18,12,55,8.10
2012,11,18,12,56,6.40
2012,11,18,12,57,9.60
2012,11,18,12,58,6.40
2012,11,18,12,59,9.60
2012,11,18,13,00,6.40
2012,11,18,13,01,6.40
2012,11,18,13,02,4.80
2012,11,18,13,03,9.60
2012,11,18,13,04,9.60
2012,11,18,13,05,8.10
2012,11,18,13,06,8.10
2012,11,18,13,07,16.10
2012,11,18,13,08,20.90
2012,11,18,13,09,19.30
2012,11,18,13,10,9.60
2012,11,18,13,11,6.40
2012,11,18,13,12,8.10
2012,11,18,13,13,6.40
2012,11,18,13,14,8.10
2012,11,18,13,15,14.50
2012,11,18,13,16,8.10
2012,11,18,13,17,9.60
2012,11,18,13,18,14.50
2012,11,18,13,19,6.40
2012,11,18,13,20,8.10
2012,11,18,13,21,11.30
2012,11,18,13,22,8.10
2012,11,18,13,23,16.10
2012,11,18,13,24,14.50
2012,11,18,13,25,12.90
2012,11,18,13,26,9.60
2012,11,18,13,27,9.60
2012,11,18,13,28,11.30
2012,11,18,13,29,8.10
2012,11,18,13,30,9.60
2012,11,18,13,31,9.60
2012,11,18,13,32,8.10
2012,11,18,13,33,6.40
2012,11,18,13,34,4.80
2012,11,18,13,35,6.40
2012,11,18,13,36,4.80
2012,11,18,13,37,6.40
2012,11,18,13,38,9.60
2012,11,18,13,39,11.30
2012,11,18,13,40,12.90
2012,11,18,13,41,9.60
2012,11,18,13,42,11.30
2012,11,18,13,43,8.10
2012,11,18,13,44,11.30
2012,11,18,13,45,14.50
2012,11,18,13,46,9.60
2012,11,18,13,47,8.10
2012,11,18,13,48,4.80
2012,11,18,13,49,4.80
2012,11,18,13,50,12.90
2012,11,18,13,51,9.60
2012,11,18,13,52,16.10
2012,11,18,13,53,9.60
2012,11,18,13,54,16.10
2012,11,18,13,55,11.30
2012,11,18,13,56,9.60
2012,11,18,13,57,6.40
2012,11,18,13,58,4.80
2012,11,18,13,59,4.80
2012,11,18,14,00,6.40
2012,11,18,14,01,8.10
2012,11,18,14,02,8.10
2012,11,18,14,03,11.30
2012,11,18,14,04,9.60
2012,11,18,14,05,8.10
2012,11,18,14,06,6.40
2012,11,18,14,07,4.80
2012,11,18,14,08,9.60
2012,11,18,14,09,12.90
2012,11,18,14,10,14.50
2012,11,18,14,11,6.40
2012,11,18,14,12,6.40
2012,11,18,14,13,6.40
2012,11,18,14,14,11.30
2012,11,18,14,15,16.10
2012,11,18,14,16,24.20
2012,11,18,14,17,11.30
2012,11,18,14,18,9.60
2012,11,18,14,19,6.40
2012,11,18,14,20,6.40
2012,11,18,14,21,8.10
2012,11,18,14,22,16.10
2012,11,18,14,23,9.60
2012,11,18,14,24,8.10
2012,11,18,14,25,11.30
2012,11,18,14,26,8.10
2012,11,18,14,27,6.40
2012,11,18,14,28,6.40
2012,11,18,14,29,8.10
2012,11,18,14,30,11.30
2012,11,18,14,31,11.30
2012,11,18,14,32,9.60
2012,11,18,14,33,4.80
2012,11,18,14,34,3.20
2012,11,18,14,35,6.40
2012,11,18,14,36,8.10
2012,11,18,14,37,9.60
2012,11,18,14,38,16.10
2012,11,18,14,39,20.90
2012,11,18,14,40,17.70
2012,11,18,14,41,14.50
2012,11,18,14,42,8.10
2012,11,18,14,43,12.90
2012,11,18,14,44,11.30
2012,11,18,14,45,8.10
2012,11,18,14,46,16.10
2012,11,18,14,47,20.90
2012,11,18,14,48,30.60
2012,11,18,14,49,22.50
2012,11,18,14,50,22.50
2012,11,18,14,51,14.50
2012,11,18,14,52,17.70
2012,11,18,14,53,20.90
2012,11,18,14,54,27.40
2012,11,18,14,55,24.20
2012,11,18,14,56,25.70
2012,11,18,14,57,22.50
2012,11,18,14,58,30.60
2012,11,18,14,59,20.90
2012,11,18,15,00,24.20
2012,11,18,15,01,25.70
2012,11,18,15,02,25.70
2012,11,18,15,03,27.40
2012,11,18,15,04,22.50
2012,11,18,15,05,22.50
2012,11,18,15,06,29.00
2012,11,18,15,07,37.00
2012,11,18,15,08,33.80
2012,11,18,15,09,29.00
2012,11,18,15,10,38.60
2012,11,18,15,11,45.10
2012,11,18,15,12,35.40
2012,11,18,15,13,27.40
2012,11,18,15,14,38.60
2012,11,18,15,15,37.00
2012,11,18,15,16,35.40
2012,11,18,15,17,25.70
2012,11,18,15,18,37.00
2012,11,18,15,19,40.20
2012,11,18,15,20,45.10
2012,11,18,15,21,45.10
2012,11,18,15,22,38.60
2012,11,18,15,23,33.80
2012,11,18,15,24,33.80
2012,11,18,15,25,35.40
2012,11,18,15,26,37.00
2012,11,18,15,27,35.40
2012,11,18,15,28,35.40
2012,11,18,15,29,41.80
2012,11,18,15,30,37.00
2012,11,18,15,31,43.50
2012,11,18,15,32,38.60
2012,11,18,15,33,41.80
2012,11,18,15,34,43.50
2012,11,18,15,35,37.00
2012,11,18,15,36,37.00
2012,11,18,15,37,41.80
2012,11,18,15,38,40.20
2012,11,18,15,39,38.60
2012,11,18,15,40,37.00
2012,11,18,15,41,53.10
2012,11,18,15,42,43.50
2012,11,18,15,43,43.50
2012,11,18,15,44,48.30
2012,11,18,15,45,41.80
2012,11,18,15,46,53.10
2012,11,18,15,47,45.10
2012,11,18,15,48,38.60
2012,11,18,15,49,43.50
2012,11,18,15,50,46.70
2012,11,18,15,51,43.50
2012,11,18,15,52,38.60
2012,11,18,15,53,37.00
2012,11,18,15,54,43.50
2012,11,18,15,55,43.50
2012,11,18,15,56,46.70
2012,11,18,15,57,45.10
2012,11,18,15,58,46.70
2012,11,18,15,59,48.30
2012,11,18,16,00,40.20
2012,11,18,16,01,38.60
2012,11,18,16,02,53.10
2012,11,18,16,03,45.10
2012,11,18,16,04,43.50
2012,11,18,16,05,51.50
2012,11,18,16,06,59.50
2012,11,18,16,07,54.70
2012,11,18,16,08,41.80
2012,11,18,16,09,41.80
2012,11,18,16,10,48.30
2012,11,18,16,11,48.30
2012,11,18,16,12,37.00
2012,11,18,16,13,53.10
2012,11,18,16,14,57.90
2012,11,18,16,15,49.90
2012,11,18,16,16,51.50
2012,11,18,16,17,46.70
2012,11,18,16,18,56.30
2012,11,18,16,19,45.10
2012,11,18,16,20,43.50
2012,11,18,16,21,49.90
2012,11,18,16,22,43.50
2012,11,18,16,23,46.70
2012,11,18,16,24,40.20
2012,11,18,16,25,35.40
2012,11,18,16,26,48.30
2012,11,18,16,27,45.10
2012,11,18,16,28,49.90
2012,11,18,16,29,53.10
2012,11,18,16,30,53.10
2012,11,18,16,31,46.70
2012,11,18,16,32,45.10
2012,11,18,16,33,56.30
2012,11,18,16,34,45.10
2012,11,18,16,35,57.90
2012,11,18,16,36,40.20
2012,11,18,16,37,48.30
2012,11,18,16,38,51.50
2012,11,18,16,39,59.50
2012,11,18,16,40,59.50
2012,11,18,16,41,46.70
2012,11,18,16,42,64.40
2012,11,18,16,43,49.90
2012,11,18,16,44,56.30
2012,11,18,16,45,41.80
2012,11,18,16,46,53.10
2012,11,18,16,47,54.70
2012,11,18,16,48,53.10
2012,11,18,16,49,53.10
2012,11,18,16,50,56.30
2012,11,18,16,51,37.00
2012,11,18,16,52,62.70
2012,11,18,16,53,46.70
2012,11,18,16,54,43.50
2012,11,18,16,55,51.50
2012,11,18,16,56,49.90
2012,11,18,16,57,46.70
2012,11,18,16,58,48.30
2012,11,18,16,59,49.90
2012,11,18,17,00,49.90
2012,11,18,17,01,51.50
2012,11,18,17,02,46.70
2012,11,18,17,03,43.50
2012,11,18,17,04,54.70
2012,11,18,17,05,46.70
2012,11,18,17,06,37.00
2012,11,18,17,07,53.10
2012,11,18,17,08,45.10
2012,11,18,17,09,46.70
2012,11,18,17,10,41.80
2012,11,18,17,11,40.20
2012,11,18,17,12,49.90
2012,11,18,17,13,29.00
2012,11,18,17,14,38.60
2012,11,18,17,15,46.70
2012,11,18,17,16,53.10
2012,11,18,17,17,43.50
2012,11,18,17,18,45.10
2012,11,18,17,19,46.70
2012,11,18,17,20,41.80
2012,11,18,17,21,30.60
2012,11,18,17,22,45.10
2012,11,18,17,23,40.20
2012,11,18,17,24,41.80
2012,11,18,17,25,46.70
2012,11,18,17,26,53.10
2012,11,18,17,27,40.20
2012,11,18,17,28,46.70
2012,11,18,17,29,38.60
2012,11,18,17,30,46.70
2012,11,18,17,31,51.50
2012,11,18,17,32,49.90
2012,11,18,17,33,49.90
2012,11,18,17,34,49.90
2012,11,18,17,35,51.50
2012,11,18,17,36,54.70
2012,11,18,17,37,37.00
2012,11,18,17,38,43.50
2012,11,18,17,39,43.50
2012,11,18,17,40,53.10
2012,11,18,17,41,40.20
2012,11,18,17,42,53.10
2012,11,18,17,43,43.50
2012,11,18,17,44,49.90
2012,11,18,17,45,46.70
2012,11,18,17,46,56.30
2012,11,18,17,47,41.80
2012,11,18,17,48,46.70
2012,11,18,17,49,48.30
2012,11,18,17,50,48.30
2012,11,18,17,51,43.50
2012,11,18,17,52,46.70
2012,11,18,17,53,32.20
2012,11,18,17,54,46.70
2012,11,18,17,55,53.10
2012,11,18,17,56,53.10
2012,11,18,17,57,56.30
2012,11,18,17,58,54.70
2012,11,18,17,59,38.60
2012,11,18,18,00,46.70
2012,11,18,18,01,51.50
2012,11,18,18,02,48.30
2012,11,18,18,03,49.90
2012,11,18,18,04,32.20
2012,11,18,18,05,53.10
2012,11,18,18,06,53.10
2012,11,18,18,07,38.60
2012,11,18,18,08,37.00
2012,11,18,18,09,54.70
2012,11,18,18,10,45.10
2012,11,18,18,11,45.10
2012,11,18,18,12,64.40
2012,11,18,18,13,53.10
2012,11,18,18,14,57.90
2012,11,18,18,15,53.10
2012,11,18,18,16,64.40
2012,11,18,18,17,53.10
2012,11,18,18,18,59.50
2012,11,18,18,19,49.90
2012,11,18,18,20,54.70
2012,11,18,18,21,45.10
2012,11,18,18,22,51.50
2012,11,18,18,23,53.10
2012,11,18,18,24,53.10
2012,11,18,18,25,41.80
2012,11,18,18,26,56.30
2012,11,18,18,27,54.70
2012,11,18,18,28,46.70
2012,11,18,18,29,40.20
2012,11,18,18,30,40.20
2012,11,18,18,31,53.10
2012,11,18,18,32,53.10
2012,11,18,18,33,54.70
2012,11,18,18,34,41.80
2012,11,18,18,35,45.10
2012,11,18,18,36,41.80
2012,11,18,18,37,53.10
2012,11,18,18,38,48.30
2012,11,18,18,39,59.50
2012,11,18,18,40,54.70
2012,11,18,18,41,56.30
2012,11,18,18,42,53.10
2012,11,18,18,43,59.50
2012,11,18,18,44,51.50
2012,11,18,18,45,64.40
2012,11,18,18,46,56.30
2012,11,18,18,47,41.80
2012,11,18,18,48,51.50
2012,11,18,18,49,59.50
2012,11,18,18,50,49.90